Temperature
5 2 2 1 1 1 1 0 -1 -1 -1 -2 -2 -3 -3 -4 -5 -6 -7 -8 -9 -9 -10 -11 -11 -12 -12 -12 -12 -12 -11 -11 -11 -11 -10 -9 -8 -6 -5 -5 -5 -4 -4
4 2 2 1 1 1 1 -0 -1 -2 -2 -2 -3 -3 -4 -5 -7 -8 -8 -9 -9 -10 -11 -12 -12 -12 -12 -12 -12 -12 -12 -12 -11 -12 -11 -10 -8 -5 -6 -6 -6 -5 -5
5 3 2 1 1 1 0 -0 -1 -2 -2 -3 -3 -4 -5 -6 -7 -8 -8 -9 -10 -11 -12 -12 -12 -12 -12 -12 -12 -12 -13 -12 -12 -12 -12 -12 -10 -10 -9 -7 -6 -6 -6
5 3 2 1 1 1 0 -1 -1 -2 -3 -3 -4 -5 -6 -7 -7 -8 -9 -10 -11 -11 -12 -12 -12 -12 -12 -12 -13 -13 -13 -13 -13 -13 -12 -12 -12 -12 -10 -8 -7 -7 -7
4 3 2 1 1 1 -0 -1 -2 -2 -3 -3 -4 -5 -6 -7 -7 -9 -10 -11 -11 -11 -12 -12 -12 -12 -12 -12 -13 -13 -13 -13 -13 -13 -13 -13 -12 -12 -12 -10 -9 -8 -7
3 2 1 2 1 1 -0 -1 -2 -2 -3 -4 -4 -5 -6 -7 -8 -9 -11 -11 -11 -11 -11 -12 -12 -12 -12 -12 -12 -13 -13 -13 -13 -13 -13 -13 -13 -12 -11 -10 -10 -8 -7
2 1 1 2 1 0 -1 -1 -2 -2 -3 -4 -5 -6 -7 -7 -9 -10 -11 -12 -12 -11 -11 -11 -11 -11 -12 -12 -12 -12 -12 -13 -13 -13 -13 -13 -13 -12 -12 -11 -10 -9 -8
2 1 2 1 1 -0 -1 -1 -2 -3 -3 -4 -5 -6 -7 -8 -9 -10 -11 -12 -12 -12 -11 -11 -11 -11 -11 -11 -12 -12 -12 -12 -12 -12 -13 -13 -12 -12 -12 -11 -10 -9 -8
2 1 1 1 1 -0 -1 -1 -2 -3 -4 -4 -5 -6 -7 -8 -9 -10 -11 -12 -12 -12 -11 -11 -11 -11 -11 -11 -11 -11 -11 -11 -11 -12 -12 -12 -11 -11 -11 -10 -10 -9 -8
1 1 1 1 1 -0 -1 -1 -2 -3 -4 -5 -6 -6 -7 -8 -9 -10 -11 -11 -12 -12 -12 -11 -11 -11 -11 -11 -11 -11 -11 -11 -11 -11 -11 -11 -10 -10 -10 -9 -9 -9 -8
2 2 2 1 0 -0 -1 -2 -3 -4 -4 -5 -6 -6 -7 -8 -9 -10 -11 -11 -12 -12 -12 -12 -11 -11 -11 -11 -11 -11 -11 -11 -11 -11 -11 -10 -10 -10 -9 -9 -9 -9 -9
2 2 2 1 0 -0 -1 -2 -3 -4 -4 -5 -5 -6 -7 -8 -9 -10 -11 -11 -12 -12 -12 -12 -12 -11 -11 -11 -11 -11 -11 -11 -11 -11 -11 -11 -10 -10 -10 -9 -9 -9 -9
2 2 2 1 0 -1 -1 -2 -3 -4 -4 -5 -6 -6 -7 -8 -9 -10 -10 -11 -11 -12 -12 -12 -12 -11 -11 -11 -11 -11 -11 -11 -11 -12 -12 -11 -11 -11 -10 -10 -10 -10 -9
2 2 2 1 0 -1 -2 -2 -3 -4 -4 -5 -6 -6 -7 -8 -9 -9 -10 -11 -11 -12 -12 -12 -12 -12 -11 -11 -12 -12 -11 -11 -11 -12 -12 -12 -12 -11 -11 -10 -10 -10 -10
2 2 2 1 -0 -1 -2 -2 -3 -3 -4 -5 -6 -6 -7 -8 -8 -9 -10 -10 -11 -11 -12 -12 -12 -12 -11 -11 -11 -12 -12 -12 -12 -12 -12 -12 -12 -12 -11 -11 -11 -11 -11
3 3 2 1 0 -1 -2 -2 -3 -3 -4 -5 -6 -6 -7 -8 -8 -9 -9 -10 -10 -11 -11 -12 -12 -12 -12 -12 -11 -11 -12 -12 -13 -13 -13 -13 -12 -12 -11 -11 -11 -11 -11
4 4 3 1 0 -1 -2 -2 -3 -3 -4 -5 -6 -6 -7 -8 -8 -9 -9 -9 -10 -10 -11 -11 -12 -12 -12 -12 -11 -11 -12 -12 -12 -13 -13 -13 -12 -12 -11 -11 -12 -12 -11
5 4 3 1 0 -1 -2 -2 -3 -3 -4 -5 -6 -6 -7 -7 -8 -8 -9 -9 -9 -10 -10 -11 -12 -12 -11 -11 -11 -11 -11 -12 -12 -13 -13 -13 -12 -12 -11 -12 -12 -12 -12
6 5 3 1 0 -1 -2 -2 -2 -3 -4 -5 -5 -6 -7 -7 -8 -8 -9 -9 -9 -10 -10 -11 -11 -11 -11 -11 -11 -11 -11 -12 -12 -12 -13 -13 -12 -12 -12 -12 -12 -12 -12
5 4 2 1 0 -1 -2 -2 -2 -3 -4 -5 -5 -6 -7 -7 -8 -8 -9 -9 -9 -9 -10 -10 -10 -10 -10 -11 -11 -11 -11 -11 -12 -12 -13 -13 -12 -13 -12 -12 -13 -12 -12
5 3 2 1 0 -1 -1 -2 -2 -3 -4 -4 -5 -6 -6 -7 -7 -8 -8 -9 -9 -9 -9 -10 -10 -10 -10 -10 -10 -10 -11 -12 -12 -13 -13 -13 -13 -13 -13 -13 -13 -13 -12
5 3 2 1 -0 -1 -1 -2 -2 -3 -4 -4 -5 -6 -6 -7 -7 -8 -8 -8 -9 -9 -10 -10 -10 -10 -10 -10 -10 -10 -11 -12 -12 -13 -13 -13 -13 -13 -14 -13 -13 -13 -12
5 3 2 1 -0 -1 -1 -2 -2 -3 -3 -4 -5 -6 -6 -6 -7 -7 -7 -8 -8 -8 -10 -11 -11 -10 -10 -9 -10 -10 -11 -12 -12 -13 -13 -13 -13 -13 -14 -14 -13 -13 -13
5 3 2 1 0 -0 -1 -2 -2 -3 -3 -4 -5 -5 -6 -6 -6 -6 -7 -7 -7 -8 -10 -10 -11 -11 -10 -10 -10 -10 -11 -11 -12 -12 -12 -13 -13 -13 -13 -13 -13 -13 -14
5 4 2 2 1 -0 -1 -2 -2 -3 -3 -4 -4 -5 -5 -5 -5 -6 -6 -6 -7 -8 -9 -10 -11 -11 -10 -10 -10 -10 -11 -11 -12 -12 -12 -12 -12 -13 -13 -13 -13 -13 -13
6 4 3 2 1 -0 -1 -2 -2 -3 -3 -4 -4 -5 -5 -5 -5 -5 -5 -6 -6 -6 -7 -8 -10 -11 -11 -11 -10 -10 -11 -11 -11 -11 -12 -12 -12 -13 -13 -13 -13 -13 -13
Wind_Speed
13 12 11 8 5 2 2 5 7 9 9 8 8 9 10 9 10 11 15 16 17 18 18 16 17 17 14 15 17 17 18 16 15 16 17 17 17 15 12 9 9 11 10
14 14 12 9 6 2 2 5 7 8 9 8 9 9 10 9 10 11 13 15 17 17 16 17 16 17 15 17 17 17 15 15 14 14 16 13 13 8 7 10 11 10 8
16 15 14 10 6 2 2 4 6 7 8 10 9 9 8 8 8 10 11 15 17 17 17 18 18 18 16 15 18 17 18 16 15 13 10 9 8 13 10 12 9 9 11
15 15 13 10 6 3 0 3 5 6 8 9 9 11 10 10 12 10 11 16 16 16 17 18 19 19 17 17 17 17 16 17 15 13 12 12 13 10 9 9 11 14 13
15 15 13 10 6 3 1 2 4 5 7 9 10 11 10 9 10 11 13 13 15 15 17 18 19 19 18 18 19 19 17 14 15 14 13 14 13 14 13 15 14 12 12
13 14 12 9 6 4 2 2 4 5 7 9 10 10 11 12 13 13 13 12 12 14 17 19 19 19 18 18 18 17 17 15 15 14 13 13 12 12 12 13 15 14 14
14 14 13 10 7 5 2 2 4 5 7 9 9 10 11 12 13 13 13 13 12 12 16 19 19 19 20 20 19 16 15 15 15 14 12 12 12 12 13 13 14 15 14
14 14 13 10 7 5 3 2 3 5 7 8 9 9 10 9 9 12 12 12 11 13 18 19 19 20 20 20 18 13 13 12 13 14 14 12 12 12 12 13 13 14 14
15 14 12 10 7 5 3 1 3 5 7 8 9 9 10 10 11 12 12 11 13 15 18 19 18 19 19 19 17 12 13 13 12 12 13 11 11 11 12 12 12 12 13
15 14 12 10 8 5 3 1 2 4 6 7 7 7 9 11 11 11 12 12 14 16 16 17 17 17 18 18 15 14 14 13 12 10 11 11 9 9 9 9 9 9 11
16 15 12 10 8 6 4 2 2 4 6 6 7 8 9 10 11 10 11 13 14 15 15 15 16 16 16 15 14 15 15 15 14 13 12 12 11 10 9 8 8 8 9
15 14 12 10 8 7 5 3 2 4 5 6 7 8 9 10 10 11 11 13 13 14 15 15 15 15 15 15 14 14 14 14 14 14 14 14 13 14 11 10 10 10 10
15 14 12 11 9 8 6 4 3 4 5 6 7 8 9 10 11 11 11 12 13 13 15 15 15 15 14 14 13 12 12 12 13 13 14 14 15 15 14 13 12 11 11
16 15 13 11 10 8 7 5 4 4 4 5 6 7 9 10 11 11 11 11 12 12 14 14 15 14 13 13 11 9 10 10 12 13 13 14 14 15 17 13 13 13 13
17 17 15 12 11 10 8 6 4 4 4 5 6 7 8 10 10 10 11 11 11 12 13 14 15 15 13 13 10 6 8 9 11 12 13 14 17 19 17 13 13 13 12
18 17 15 13 12 11 9 7 5 4 4 5 6 7 8 9 10 10 11 11 12 12 13 14 15 16 13 20 18 7 8 10 11 12 13 14 15 20 21 17 17 15 13
18 18 16 14 13 11 10 8 6 5 5 5 6 6 7 9 10 10 11 11 11 12 13 14 15 16 18 23 22 15 10 12 13 13 13 13 15 20 14 12 15 15 16
17 17 15 14 12 11 10 8 6 6 5 6 6 6 7 9 10 11 11 11 11 11 12 13 15 15 17 22 23 19 11 11 13 13 14 15 16 17 16 12 12 13 11
16 16 15 14 13 12 11 9 8 7 6 7 6 6 7 9 10 11 11 11 11 12 12 13 14 15 17 21 24 21 10 10 12 12 13 15 15 20 22 15 14 14 11
13 13 14 14 13 12 11 10 9 8 8 7 7 7 7 9 10 12 12 11 11 12 12 13 13 14 15 19 23 22 8 9 11 11 12 16 19 21 21 15 14 15 13
14 14 15 14 13 13 12 11 9 9 7 6 7 7 8 9 10 11 11 11 11 12 12 13 13 14 15 17 20 19 9 8 10 10 10 12 21 21 21 18 14 17 16
15 16 15 13 12 13 13 11 11 8 7 6 7 8 8 8 8 11 11 11 11 11 12 12 13 13 14 15 15 15 12 10 9 9 10 12 20 19 19 17 20 22 17
16 16 15 14 13 13 13 12 10 8 8 7 7 8 8 8 8 9 11 10 9 9 10 10 11 12 13 13 13 10 10 11 8 8 12 15 17 17 14 19 21 18 13
17 16 16 15 14 14 14 12 9 9 8 7 7 7 7 8 8 7 8 8 8 9 10 10 11 12 12 12 10 7 8 9 8 8 10 13 14 13 14 15 14 12 13
17 17 17 16 16 15 14 13 11 10 9 7 6 6 6 7 7 7 7 8 8 9 11 9 10 11 12 16 18 13 10 9 9 9 7 7 9 10 10 11 11 12 12
18 18 18 17 16 15 15 14 13 12 10 7 6 5 5 5 5 6 7 7 8 11 11 10 11 11 15 19 19 16 15 14 13 9 7 8 8 9 10 10 11 11 12
Wind_Direction
214 197 192 189 195 217 333 344 344 347 346 343 340 337 334 331 331 332 333 333 333 332 328 324 321 319 314 312 309 308 306 305 305 305 305 301 286 273 267 271 284 279 278
209 198 194 194 203 227 326 336 344 344 348 344 334 328 323 320 322 328 332 333 332 330 326 323 320 317 313 310 309 308 305 303 304 307 309 309 305 271 308 298 282 280 299
213 199 195 196 200 218 326 338 338 338 345 343 335 330 325 324 333 336 333 332 328 325 323 321 319 316 314 310 309 306 301 301 301 295 295 299 301 326 296 286 285 300 302
215 200 193 192 193 187 266 324 330 337 348 347 341 338 333 332 335 333 327 326 325 323 323 322 320 317 314 311 309 305 299 296 293 293 286 279 285 289 299 300 302 297 293
207 193 186 181 172 169 219 316 323 339 351 348 341 335 331 330 329 329 327 327 325 324 325 326 323 320 317 314 311 308 300 293 288 288 288 284 282 272 273 286 294 297 296
196 183 173 166 169 175 209 299 320 346 352 345 338 335 333 332 330 331 329 329 326 326 330 331 328 325 322 318 315 310 303 295 287 284 282 281 280 279 279 284 292 296 298
186 177 174 177 183 191 212 278 326 350 349 340 335 333 331 330 329 330 328 328 326 327 329 331 329 327 325 324 321 315 308 300 293 285 281 278 275 274 274 276 284 290 294
188 184 181 182 185 188 208 270 343 349 341 332 331 327 329 328 324 325 324 323 322 323 324 326 326 327 329 329 328 322 317 306 297 289 284 279 275 271 268 269 277 287 293
190 186 181 182 184 186 199 271 347 339 330 324 324 324 330 328 323 322 321 322 322 322 322 324 327 329 331 333 333 330 326 317 307 296 288 280 276 272 268 266 266 276 290
191 187 183 184 183 182 191 208 334 324 318 316 321 321 325 325 322 320 323 323 323 324 324 326 328 330 331 334 335 335 338 333 327 317 305 297 289 287 285 284 279 276 283
192 188 184 182 179 183 193 204 289 306 309 314 317 321 324 323 321 320 323 325 325 327 328 328 328 330 332 332 332 336 337 338 339 339 335 329 321 319 311 310 312 309 304
191 186 182 180 185 193 196 204 255 289 304 309 313 318 321 322 321 322 324 326 327 329 328 329 328 328 330 327 327 333 337 338 338 338 338 337 334 331 327 326 324 320 314
187 185 184 187 192 196 197 203 237 275 295 301 308 315 321 322 321 322 324 327 328 328 330 330 328 327 325 323 317 326 332 335 335 334 334 333 331 332 332 331 330 324 318
189 189 190 191 193 196 197 202 228 260 283 294 303 313 321 321 319 319 322 327 328 328 329 327 326 325 323 319 302 309 323 329 333 332 331 330 326 326 327 330 332 327 320
194 195 195 191 191 193 194 200 221 245 268 285 298 310 316 317 314 315 319 324 326 326 325 324 325 325 325 321 303 283 317 329 333 333 330 327 327 326 327 329 332 328 322
199 198 196 191 191 192 191 196 213 230 254 272 286 299 308 309 309 310 316 320 323 324 323 321 320 322 324 325 335 331 328 338 338 334 332 328 328 326 327 324 329 328 322
199 197 195 192 189 187 185 193 204 216 240 260 275 290 300 304 307 309 313 317 319 320 319 318 319 320 322 327 331 335 333 337 339 338 337 334 330 331 322 325 331 325 320
198 195 191 185 180 175 178 186 195 214 235 253 266 279 291 297 304 308 312 315 316 316 314 316 319 319 320 325 326 330 323 332 338 341 338 334 331 329 343 340 332 324 321
194 189 182 175 170 172 176 184 199 212 229 245 258 273 283 291 299 304 310 315 314 312 311 316 319 319 318 320 322 332 325 333 339 343 340 337 338 342 351 348 338 333 336
181 174 167 165 169 173 175 188 202 212 226 238 254 270 280 287 295 302 310 314 314 311 315 318 320 317 313 314 318 327 331 337 340 344 343 341 349 353 355 354 346 342 344
172 167 165 170 174 171 178 195 205 214 221 233 254 268 278 288 296 301 306 310 311 314 316 319 322 320 319 321 321 328 347 348 344 346 345 346 353 357 357 359 355 351 350
173 171 172 174 172 174 184 199 209 209 209 229 253 266 276 286 291 299 305 309 313 315 320 324 326 329 331 332 332 340 353 357 350 348 347 348 354 357 358 360 0 358 355
178 177 177 175 176 182 191 203 203 195 201 225 249 265 276 283 288 298 305 310 316 318 321 325 330 333 335 341 347 348 346 351 353 344 344 348 352 354 355 358 1 360 356
183 180 181 183 186 189 197 205 193 187 199 223 245 263 275 285 294 299 301 309 316 319 322 332 334 334 339 352 2 360 346 343 345 339 337 342 347 353 356 358 359 358 357
186 184 188 192 191 188 196 199 194 190 202 219 239 257 268 281 293 300 304 307 308 316 325 331 332 335 342 351 0 9 1 355 352 339 334 341 346 352 356 357 359 358 358
186 188 193 194 191 189 193 194 193 193 199 211 227 244 265 281 294 305 308 302 307 322 333 336 337 336 343 348 357 5 4 0 357 348 342 343 343 345 348 350 353 357 358
Height
1604 1602 1601 1600 1599 1598 1596 1592 1588 1584 1580 1576 1572 1567 1562 1556 1550 1545 1539 1533 1527 1521 1515 1509 1503 1497 1492 1486 1480 1475 1469 1463 1458 1451 1444 1438 1433 1429 1427 1426 1424 1423 1422
1599 1598 1597 1597 1597 1596 1593 1589 1585 1581 1577 1574 1569 1564 1558 1552 1547 1542 1536 1530 1524 1517 1511 1506 1500 1494 1488 1482 1477 1471 1465 1459 1455 1450 1442 1435 1430 1424 1423 1421 1419 1418 1416
1593 1593 1594 1594 1594 1593 1590 1586 1583 1579 1575 1571 1567 1561 1556 1551 1546 1539 1532 1527 1521 1515 1509 1503 1497 1491 1485 1479 1473 1467 1461 1455 1451 1448 1444 1437 1429 1425 1420 1418 1416 1414 1411
1588 1589 1590 1591 1591 1589 1586 1583 1580 1576 1573 1569 1564 1558 1553 1548 1542 1535 1529 1523 1518 1512 1506 1501 1494 1488 1482 1475 1468 1462 1457 1451 1446 1443 1440 1437 1432 1428 1420 1415 1413 1410 1407
1583 1584 1585 1586 1587 1586 1583 1580 1577 1574 1570 1566 1561 1555 1550 1545 1539 1532 1526 1521 1515 1510 1504 1498 1492 1485 1478 1471 1464 1457 1451 1446 1442 1438 1435 1432 1429 1425 1421 1414 1409 1406 1402
1578 1580 1581 1582 1583 1582 1580 1577 1574 1572 1568 1563 1558 1553 1548 1542 1535 1529 1523 1518 1513 1507 1502 1495 1489 1483 1476 1468 1461 1453 1447 1441 1437 1433 1430 1427 1424 1421 1418 1413 1407 1402 1398
1574 1575 1576 1578 1579 1578 1576 1574 1572 1569 1565 1560 1555 1550 1545 1539 1533 1527 1521 1515 1510 1504 1499 1493 1487 1480 1473 1466 1458 1451 1444 1438 1433 1429 1426 1423 1420 1417 1414 1410 1405 1400 1394
1569 1571 1573 1574 1575 1574 1573 1571 1569 1567 1562 1557 1553 1547 1542 1536 1530 1524 1518 1513 1508 1502 1496 1491 1485 1479 1472 1465 1457 1450 1443 1436 1431 1426 1422 1418 1415 1412 1409 1406 1403 1398 1392
1565 1567 1568 1570 1571 1570 1569 1568 1566 1563 1559 1554 1550 1545 1540 1534 1527 1521 1516 1511 1505 1499 1494 1488 1483 1477 1470 1464 1457 1450 1442 1436 1429 1424 1419 1415 1411 1408 1405 1402 1399 1397 1391
1560 1562 1564 1566 1566 1566 1565 1564 1563 1560 1556 1551 1547 1542 1537 1531 1525 1519 1514 1508 1502 1497 1491 1486 1481 1475 1469 1462 1456 1449 1443 1436 1430 1424 1418 1414 1409 1406 1402 1399 1396 1393 1390
1554 1556 1559 1561 1562 1561 1561 1560 1559 1556 1552 1548 1544 1539 1534 1528 1523 1517 1511 1505 1500 1494 1489 1484 1478 1473 1467 1461 1455 1448 1442 1436 1430 1425 1419 1414 1409 1405 1401 1398 1394 1390 1387
1549 1552 1554 1556 1557 1557 1557 1556 1555 1552 1549 1545 1541 1537 1532 1526 1520 1515 1509 1503 1498 1492 1487 1482 1476 1471 1465 1459 1454 1447 1441 1435 1429 1424 1418 1414 1409 1405 1400 1396 1392 1388 1384
1544 1546 1549 1551 1552 1552 1553 1552 1551 1548 1545 1542 1538 1534 1529 1524 1518 1512 1506 1501 1496 1490 1485 1479 1474 1468 1463 1458 1452 1447 1441 1434 1428 1422 1417 1412 1408 1403 1399 1395 1390 1386 1381
1538 1541 1544 1546 1547 1548 1548 1548 1546 1544 1541 1539 1535 1531 1527 1522 1516 1510 1504 1499 1493 1488 1483 1477 1472 1466 1461 1455 1450 1445 1439 1433 1427 1421 1416 1411 1406 1402 1397 1393 1388 1383 1378
1532 1535 1538 1541 1542 1543 1543 1543 1542 1540 1538 1535 1532 1529 1524 1519 1514 1508 1502 1497 1491 1486 1480 1475 1469 1464 1458 1453 1447 1442 1437 1431 1425 1419 1414 1409 1405 1400 1396 1391 1386 1381 1376
1525 1529 1532 1535 1537 1538 1538 1538 1537 1536 1534 1532 1529 1526 1522 1517 1512 1506 1500 1495 1489 1484 1478 1472 1467 1461 1456 1451 1447 1441 1436 1430 1424 1418 1412 1407 1402 1397 1392 1388 1383 1378 1373
1519 1522 1526 1529 1531 1533 1533 1533 1533 1532 1530 1528 1526 1523 1519 1515 1510 1504 1498 1493 1487 1481 1476 1470 1464 1459 1454 1449 1444 1439 1434 1429 1423 1417 1411 1406 1400 1395 1389 1384 1379 1374 1370
1513 1516 1520 1524 1526 1528 1528 1529 1528 1528 1527 1525 1523 1520 1517 1512 1507 1502 1496 1491 1485 1479 1474 1468 1463 1458 1452 1447 1441 1437 1432 1427 1422 1416 1410 1405 1399 1393 1388 1382 1376 1371 1366
1509 1512 1515 1518 1521 1523 1524 1524 1524 1523 1523 1521 1519 1517 1514 1509 1505 1500 1494 1489 1483 1478 1472 1467 1462 1456 1451 1445 1439 1435 1429 1425 1420 1415 1409 1404 1398 1392 1386 1380 1374 1369 1363
1504 1507 1510 1513 1515 1517 1519 1519 1519 1519 1519 1517 1516 1514 1510 1507 1502 1497 1492 1487 1482 1476 1471 1466 1461 1455 1449 1443 1437 1432 1428 1423 1418 1413 1408 1403 1397 1391 1385 1379 1373 1367 1360
1500 1502 1505 1507 1510 1512 1513 1514 1515 1515 1515 1514 1512 1510 1507 1504 1500 1495 1490 1485 1480 1475 1470 1465 1460 1454 1448 1442 1436 1431 1427 1422 1417 1412 1407 1402 1397 1390 1385 1379 1373 1367 1360
1494 1496 1499 1502 1504 1506 1508 1509 1510 1510 1510 1510 1509 1507 1504 1501 1497 1493 1488 1483 1478 1472 1467 1462 1458 1453 1448 1442 1436 1431 1427 1422 1417 1412 1407 1402 1397 1391 1385 1379 1373 1366 1359
1488 1490 1493 1496 1498 1500 1502 1504 1505 1506 1506 1505 1505 1503 1501 1498 1494 1490 1486 1481 1476 1470 1465 1461 1456 1452 1447 1442 1436 1431 1426 1421 1417 1412 1407 1402 1397 1391 1385 1380 1374 1366 1360
1481 1484 1487 1489 1492 1494 1497 1499 1500 1501 1501 1501 1500 1499 1497 1495 1492 1488 1484 1479 1473 1467 1463 1460 1455 1451 1447 1442 1437 1431 1426 1421 1417 1412 1407 1403 1398 1393 1387 1382 1375 1369 1364
1473 1476 1479 1482 1486 1489 1491 1493 1494 1496 1496 1497 1496 1495 1494 1492 1489 1486 1482 1477 1472 1467 1462 1458 1454 1450 1446 1442 1438 1433 1427 1422 1417 1412 1408 1403 1399 1394 1389 1384 1378 1373 1367
1465 1468 1471 1475 1479 1482 1485 1487 1488 1490 1491 1492 1492 1491 1490 1489 1487 1484 1481 1477 1472 1467 1462 1457 1453 1449 1446 1441 1437 1432 1428 1423 1418 1413 1409 1404 1400 1396 1391 1386 1382 1376 1371